World > North America > United States > Pennsylvania

Erie, Pennsylvania Regional Weather

Lat: 42.13N, Lon: 80.09W
Wx Zone: PAZ001
Feedback

Erie, PA Regional Weather

Expires:201909220300;;154180
ASUS41 KPHI 220212
RWRPHI

REGIONAL WEATHER ROUNDUP
NATIONAL WEATHER SERVICE MOUNT HOLLY NJ
1000 PM EDT SAT SEP 21 2019

NOTE:  "FAIR" INDICATES FEW OR NO CLOUDS BELOW 12,000 FEET WITH NO
SIGNIFICANT WEATHER AND/OR OBSTRUCTIONS TO VISIBILITY.

 * = STATION DOES NOT REPORT PRECIPITATION (E.G. RAIN, SNOW, ETC.) 
        OR FOG.


PAZ001-021-NYZ056-072-MDZ011-DCZ001-220300-
OTHER NEARBY LOCATIONS
  
CITY           SKY/WX    TMP DP  RH WIND       PRES   REMARKS
HARRISBURG     FAIR      73  62  68 E3        30.18R                  
STATE COLLEGE  CLEAR     70  63  78 CALM      30.22R                  
WILLIAMSPORT   FAIR      62  58  86 CALM      30.18R                  
BINGHAMTON     FAIR      68  52  56 SW3       30.22R                  
NEW YORK CITY  FAIR      73  57  57 CALM      30.20S                  
BALTIMORE      FAIR      69  61  75 CALM      30.18R                  
WASHINGTON DC  MOCLDY    77  66  68 S6        30.19R                  

$$
  

SKY/WX - Weather  TMP - Temperature  DP - Dew Point  RH - Relative Humidity
WIND - Wind Direction/Speed PRES - Barometric Pressure VSB - Visibility
WCI - Wind Chill Index E13G22 Wind - East Wind 13 mph/Gusts of 22 mph